AFL765 UUEE-VRMM

Flight info

Callsign AFL765
Flight time 8h 26m
Altitude 33000
Route TOGMO3H TOGMO M56 DENUD M161 MILSO M875 AMDAR/N0495F330 M875 TAPIS L509 LAJAK M881 LAKRA G325 ZB G326 NH N893 TELEM Z10 LAXOM W74 HSR W144 IPNIB R458 MABTA Q13 DODSI DCT TVM R457 MUGBA MUGBA2A
Aircraft B77W/H-SDE1E2E3FGHIJ2J3J4J5M1RWXY/LB1D1

Departure

Time 2026-05-07 10:29
Airport Sheremetyevo International Airport (UUEE)

Arrival

Time 2026-05-07 18:55
Airport Velana International Airport (VRMM)
Time Latitude Longitude Altitude Speed Heading
2026-05-07 10:01 55.97930 37.41229 644 ft 0 kts 255°
2026-05-07 10:20 55.97933 37.41251 649 ft 2 kts 253°
2026-05-07 10:20 55.97938 37.41279 648 ft 2 kts 253°
2026-05-07 10:20 55.97943 37.41307 647 ft 2 kts 252°
2026-05-07 10:21 55.97948 37.41335 646 ft 2 kts 250°
2026-05-07 10:21 55.97954 37.41362 647 ft 2 kts 247°
2026-05-07 10:21 55.97961 37.41389 648 ft 2 kts 242°
2026-05-07 10:21 55.97969 37.41414 649 ft 2 kts 229°
2026-05-07 10:22 55.97982 37.41432 648 ft 2 kts 187°
2026-05-07 10:22 55.97991 37.41432 645 ft 0 kts 166°
2026-05-07 10:24 55.97960 37.41446 646 ft 10 kts 166°
2026-05-07 10:24 55.97856 37.41494 646 ft 20 kts 163°
2026-05-07 10:24 55.97721 37.41561 647 ft 20 kts 165°
2026-05-07 10:24 55.97618 37.41655 650 ft 12 kts 103°
2026-05-07 10:25 55.97640 37.41892 648 ft 25 kts 76°
2026-05-07 10:25 55.97685 37.42196 645 ft 25 kts 75°
2026-05-07 10:25 55.97731 37.42495 647 ft 25 kts 75°
2026-05-07 10:25 55.97776 37.42800 646 ft 26 kts 76°
2026-05-07 10:26 55.97810 37.43034 647 ft 18 kts 76°
2026-05-07 10:26 55.97847 37.43297 645 ft 26 kts 76°
2026-05-07 10:26 55.97895 37.43590 649 ft 20 kts 74°
2026-05-07 10:26 55.97930 37.43826 646 ft 20 kts 76°
2026-05-07 10:27 55.97938 37.43973 647 ft 10 kts 121°
2026-05-07 10:27 55.97872 37.44058 648 ft 19 kts 156°
2026-05-07 10:27 55.97781 37.44007 648 ft 13 kts 242°
2026-05-07 10:27 55.97768 37.43928 647 ft 2 kts 255°
2026-05-07 10:28 55.97765 37.43905 647 ft 2 kts 255°
2026-05-07 10:28 55.97724 37.43632 647 ft 65 kts 255°
2026-05-07 10:28 55.97518 37.42275 646 ft 160 kts 255°
2026-05-07 10:28 55.97175 37.39967 1164 ft 204 kts 253°
2026-05-07 10:29 55.96840 37.37676 2775 ft 181 kts 253°
2026-05-07 10:29 55.96506 37.35436 3156 ft 199 kts 253°
2026-05-07 10:29 55.96111 37.32946 3382 ft 219 kts 252°
2026-05-07 10:30 55.95236 37.27281 4253 ft 242 kts 260°
2026-05-07 10:30 55.95491 37.24274 4722 ft 257 kts 296°
2026-05-07 10:30 55.96706 37.21879 5349 ft 266 kts 318°
2026-05-07 10:30 55.98262 37.20034 6084 ft 268 kts 321°
2026-05-07 10:31 55.99846 37.18279 6839 ft 268 kts 321°
2026-05-07 10:31 56.01427 37.16537 7464 ft 272 kts 321°
2026-05-07 10:31 56.03045 37.14746 8093 ft 275 kts 321°
2026-05-07 10:31 56.04677 37.12930 8703 ft 279 kts 320°
2026-05-07 10:32 56.06335 37.11074 9333 ft 282 kts 320°
2026-05-07 10:32 56.08090 37.09444 9835 ft 294 kts 338°
2026-05-07 10:32 56.10199 37.09319 10307 ft 316 kts
2026-05-07 10:32 56.12223 37.11077 10734 ft 338 kts 38°
2026-05-07 10:33 56.13649 37.14434 11092 ft 352 kts 68°
2026-05-07 10:33 56.14230 37.18706 11621 ft 354 kts 84°
2026-05-07 10:33 56.14627 37.23123 12212 ft 362 kts 81°
2026-05-07 10:33 56.14920 37.27567 12922 ft 359 kts 96°
2026-05-07 10:34 56.14318 37.31884 13581 ft 354 kts 122°
2026-05-07 10:34 56.12922 37.35409 14372 ft 344 kts 140°
2026-05-07 10:34 56.11082 37.38059 15054 ft 337 kts 156°
2026-05-07 10:34 56.08973 37.39905 15677 ft 339 kts 161°
2026-05-07 10:35 56.06807 37.41646 16340 ft 344 kts 161°
2026-05-07 10:35 56.04612 37.43409 17079 ft 347 kts 161°
2026-05-07 10:35 56.02431 37.45195 17780 ft 351 kts 160°
2026-05-07 10:35 56.00202 37.47049 18449 ft 355 kts 160°
2026-05-07 10:36 55.97947 37.48934 19067 ft 359 kts 160°
2026-05-07 10:36 55.95751 37.51076 19651 ft 365 kts 145°
2026-05-07 10:36 55.94057 37.54569 20006 ft 384 kts 120°
2026-05-07 10:36 55.93215 37.59129 20554 ft 390 kts 102°
2026-05-07 10:37 55.92747 37.63924 21163 ft 394 kts 102°
2026-05-07 10:37 55.92250 37.68746 21777 ft 396 kts 102°
2026-05-07 10:37 55.91705 37.73576 22443 ft 396 kts 107°
2026-05-07 10:37 55.90661 37.78112 22922 ft 398 kts 123°
2026-05-07 10:38 55.89217 37.82348 23491 ft 401 kts 123°
2026-05-07 10:38 55.87787 37.86633 24021 ft 404 kts 122°
2026-05-07 10:38 55.86412 37.90949 24550 ft 407 kts 121°
2026-05-07 10:38 55.85026 37.95361 25058 ft 407 kts 123°
2026-05-07 10:39 55.83263 37.99267 25367 ft 406 kts 145°
2026-05-07 10:39 55.80832 38.01721 25767 ft 401 kts 166°
2026-05-07 10:39 55.78123 38.02615 26251 ft 394 kts 183°
2026-05-07 10:39 55.75421 38.02061 26750 ft 389 kts 199°
2026-05-07 10:40 55.72911 38.00304 27227 ft 387 kts 213°
2026-05-07 10:40 55.70807 37.97401 27632 ft 383 kts 228°
2026-05-07 10:40 55.68955 37.93976 28059 ft 387 kts 228°
2026-05-07 10:40 55.67046 37.90598 28464 ft 389 kts 221°
2026-05-07 10:41 55.64693 37.88228 28746 ft 402 kts 201°
2026-05-07 10:41 55.61903 37.87239 28842 ft 420 kts 184°
2026-05-07 10:41 55.58936 37.87602 28939 ft 433 kts 177°
2026-05-07 10:41 55.55896 37.88202 29026 ft 444 kts 176°
2026-05-07 10:42 55.52787 37.88801 29138 ft 455 kts 177°
2026-05-07 10:42 55.49603 37.89372 29225 ft 465 kts 177°
2026-05-07 10:42 55.43032 37.90510 29365 ft 484 kts 174°
2026-05-07 10:43 55.39710 37.91830 29486 ft 494 kts 165°
2026-05-07 10:43 55.36499 37.94076 29765 ft 499 kts 157°
2026-05-07 10:43 55.33518 37.97076 30157 ft 501 kts 148°
2026-05-07 10:43 55.30640 38.00542 30555 ft 500 kts 148°
2026-05-07 10:44 55.27783 38.04006 30981 ft 497 kts 148°
2026-05-07 10:44 55.24944 38.07427 31487 ft 493 kts 148°
2026-05-07 10:44 55.22109 38.10803 31876 ft 491 kts 148°
2026-05-07 10:44 55.19270 38.14148 32214 ft 491 kts 148°
2026-05-07 10:45 55.16429 38.17469 32513 ft 491 kts 149°
2026-05-07 10:45 55.13583 38.20784 32815 ft 492 kts 149°
2026-05-07 10:45 55.07880 38.27404 32899 ft 494 kts 149°
2026-05-07 10:46 55.02184 38.34002 32883 ft 488 kts 148°
2026-05-07 10:46 54.96529 38.40532 32897 ft 486 kts 149°
2026-05-07 10:47 54.90926 38.46978 32902 ft 485 kts 149°
2026-05-07 10:47 54.85282 38.53450 32906 ft 486 kts 149°
2026-05-07 10:48 54.79611 38.59934 32909 ft 488 kts 149°
2026-05-07 10:48 54.73959 38.66297 32902 ft 487 kts 150°
2026-05-07 10:49 54.68126 38.72279 32914 ft 487 kts 152°
2026-05-07 10:49 54.62309 38.78256 32923 ft 487 kts 151°
2026-05-07 10:50 54.56505 38.84277 32934 ft 487 kts 151°
2026-05-07 10:50 54.50690 38.90283 32923 ft 486 kts 151°
2026-05-07 10:51 54.44883 38.96260 32930 ft 486 kts 151°
2026-05-07 10:51 54.39545 39.03295 32938 ft 488 kts 132°
2026-05-07 10:52 54.36070 39.13188 32927 ft 492 kts 111°
2026-05-07 10:52 54.33658 39.24180 32938 ft 493 kts 112°
2026-05-07 10:53 54.31041 39.35059 32931 ft 493 kts 114°
2026-05-07 10:53 54.28384 39.45903 32931 ft 493 kts 114°
2026-05-07 10:54 54.25730 39.56743 32928 ft 493 kts 114°
2026-05-07 10:54 54.23079 39.67556 32931 ft 492 kts 114°
2026-05-07 10:55 54.20439 39.78278 32931 ft 492 kts 114°
2026-05-07 10:55 54.17775 39.89041 32927 ft 492 kts 114°
2026-05-07 10:56 54.15103 39.99788 32929 ft 492 kts 114°
2026-05-07 10:56 54.12874 40.08714 32934 ft 492 kts 114°
2026-05-07 10:57 54.10550 40.19678 32940 ft 491 kts 107°
2026-05-07 10:57 54.08658 40.30860 32928 ft 491 kts 107°
2026-05-07 10:58 54.06742 40.42013 32931 ft 490 kts 107°
2026-05-07 10:58 54.04790 40.53138 32928 ft 490 kts 108°
2026-05-07 10:59 54.02837 40.64150 32932 ft 490 kts 108°
2026-05-07 10:59 54.00861 40.75228 32933 ft 489 kts 108°
2026-05-07 11:00 53.98878 40.86297 32938 ft 489 kts 108°
2026-05-07 11:00 53.96887 40.97347 32936 ft 489 kts 108°
2026-05-07 11:01 53.94928 41.08319 32931 ft 489 kts 107°
2026-05-07 11:01 53.93122 41.19447 32932 ft 489 kts 106°
2026-05-07 11:02 53.91333 41.30601 32927 ft 488 kts 106°
2026-05-07 11:02 53.89515 41.41693 32932 ft 488 kts 106°
2026-05-07 11:03 53.87675 41.52766 32932 ft 488 kts 106°
2026-05-07 11:03 53.85840 41.63753 32928 ft 487 kts 106°
2026-05-07 11:04 53.83985 41.74795 32926 ft 487 kts 107°
2026-05-07 11:04 53.82105 41.85804 32928 ft 486 kts 107°
2026-05-07 11:05 53.80210 41.96761 32925 ft 485 kts 107°
2026-05-07 11:05 53.78307 42.07715 32923 ft 485 kts 107°
2026-05-07 11:06 53.76398 42.18655 32926 ft 485 kts 107°
2026-05-07 11:06 53.74493 42.29506 32920 ft 484 kts 107°
2026-05-07 11:07 53.72567 42.40415 32924 ft 484 kts 107°
2026-05-07 11:07 53.70632 42.51312 32922 ft 484 kts 107°
2026-05-07 11:08 53.68685 42.62214 32927 ft 484 kts 107°
2026-05-07 11:08 53.66785 42.73045 32935 ft 484 kts 105°
2026-05-07 11:09 53.65073 42.84045 32930 ft 485 kts 104°
2026-05-07 11:09 53.63385 42.95048 32929 ft 484 kts 104°
2026-05-07 11:10 53.61657 43.06026 32931 ft 484 kts 105°
2026-05-07 11:10 53.59908 43.16962 32939 ft 483 kts 105°
2026-05-07 11:11 53.58155 43.27835 32934 ft 483 kts 105°
2026-05-07 11:11 53.56386 43.38743 32939 ft 483 kts 105°
2026-05-07 11:12 53.54609 43.49646 32933 ft 483 kts 105°
2026-05-07 11:12 53.52819 43.60550 32935 ft 483 kts 105°
2026-05-07 11:13 53.51023 43.71427 32938 ft 483 kts 105°
2026-05-07 11:13 53.49228 43.82243 32940 ft 483 kts 105°
2026-05-07 11:14 53.47407 43.93112 32943 ft 483 kts 105°
2026-05-07 11:14 53.45570 44.03978 32938 ft 484 kts 105°
2026-05-07 11:15 53.43716 44.14872 32946 ft 486 kts 105°
2026-05-07 11:15 53.41850 44.25779 32946 ft 487 kts 105°
2026-05-07 11:16 53.39974 44.36687 32946 ft 487 kts 105°
2026-05-07 11:16 53.38099 44.47534 32946 ft 487 kts 105°
2026-05-07 11:17 53.36205 44.58422 32942 ft 486 kts 105°
2026-05-07 11:17 53.34322 44.69287 32946 ft 486 kts 105°
2026-05-07 11:18 53.32435 44.80142 32942 ft 485 kts 105°
2026-05-07 11:18 53.30540 44.90962 32948 ft 485 kts 106°
2026-05-07 11:19 53.28636 45.01776 32950 ft 484 kts 105°
2026-05-07 11:19 53.26560 45.12489 32953 ft 484 kts 109°
2026-05-07 11:20 53.24243 45.23044 32945 ft 484 kts 109°
2026-05-07 11:20 53.21929 45.33528 32951 ft 483 kts 109°
2026-05-07 11:21 53.19618 45.44050 32951 ft 483 kts 109°
2026-05-07 11:21 53.17306 45.54561 32948 ft 484 kts 109°
2026-05-07 11:22 53.14976 45.65095 32955 ft 484 kts 110°
2026-05-07 11:22 53.12632 45.75644 32952 ft 486 kts 110°
2026-05-07 11:23 53.10292 45.86125 32947 ft 486 kts 109°
2026-05-07 11:23 53.07945 45.96699 32959 ft 486 kts 109°
2026-05-07 11:24 53.05601 46.07250 32953 ft 486 kts 109°
2026-05-07 11:24 53.03247 46.17780 32947 ft 485 kts 109°
2026-05-07 11:25 53.00900 46.28217 32949 ft 484 kts 109°
2026-05-07 11:25 52.98537 46.38684 32951 ft 484 kts 109°
2026-05-07 11:26 52.96159 46.49148 32956 ft 483 kts 110°
2026-05-07 11:26 52.93765 46.59555 32949 ft 483 kts 110°
2026-05-07 11:27 52.91364 46.69942 32944 ft 482 kts 109°
2026-05-07 11:27 52.88961 46.80303 32943 ft 482 kts 110°
2026-05-07 11:28 52.86562 46.90599 32941 ft 482 kts 110°
2026-05-07 11:28 52.84140 47.00944 32949 ft 481 kts 110°
2026-05-07 11:29 52.81712 47.11274 32932 ft 481 kts 110°
2026-05-07 11:29 52.79454 47.21660 32939 ft 480 kts 108°
2026-05-07 11:30 52.77309 47.32021 32936 ft 479 kts 107°
2026-05-07 11:30 52.75108 47.42428 32937 ft 480 kts 107°
2026-05-07 11:31 52.72884 47.52802 32931 ft 478 kts 108°
2026-05-07 11:31 52.70654 47.63139 32919 ft 476 kts 109°
2026-05-07 11:32 52.67321 47.78474 32924 ft 475 kts 109°
2026-05-07 11:33 52.65082 47.88721 32917 ft 475 kts 109°
2026-05-07 11:33 52.62831 47.98982 32932 ft 475 kts 109°
2026-05-07 11:34 52.60577 48.09200 32923 ft 475 kts 109°
2026-05-07 11:34 52.60163 48.11071 32925 ft 474 kts 109°
2026-05-07 11:42 52.59987 48.11865 32623 ft 475 kts 110°
2026-05-07 11:42 52.58859 48.16925 32948 ft 467 kts 109°
2026-05-07 11:43 52.57742 48.21921 32940 ft 465 kts 110°
2026-05-07 11:43 52.55497 48.31920 32919 ft 466 kts 109°
2026-05-07 11:44 52.53250 48.41902 32913 ft 466 kts 109°
2026-05-07 11:44 52.51004 48.51831 32917 ft 467 kts 110°
2026-05-07 11:45 52.48722 48.61876 32917 ft 473 kts 110°
2026-05-07 11:45 52.46407 48.72016 32901 ft 474 kts 109°
2026-05-07 11:46 52.44095 48.82096 32911 ft 471 kts 109°
2026-05-07 11:46 52.41784 48.92123 32892 ft 470 kts 110°
2026-05-07 11:47 52.39859 49.00440 32896 ft 469 kts 110°
2026-05-07 11:47 52.37159 49.12057 32898 ft 470 kts 110°
2026-05-07 11:48 52.34824 49.22052 32887 ft 470 kts 110°
2026-05-07 11:48 52.32879 49.30358 32887 ft 470 kts 109°
2026-05-07 11:49 52.30533 49.40344 32901 ft 471 kts 110°
2026-05-07 11:49 52.28172 49.50321 32884 ft 470 kts 110°
2026-05-07 11:50 52.25802 49.60260 32872 ft 469 kts 110°
2026-05-07 11:50 52.23425 49.70189 32876 ft 468 kts 111°
2026-05-07 11:51 52.21043 49.80106 32876 ft 470 kts 110°
2026-05-07 11:51 52.18664 49.89966 32869 ft 470 kts 111°
2026-05-07 11:52 52.16262 49.99874 32871 ft 470 kts 110°
2026-05-07 11:52 52.13853 50.09767 32867 ft 470 kts 110°
2026-05-07 11:53 52.11437 50.19645 32860 ft 470 kts 110°
2026-05-07 11:53 52.09014 50.29507 32864 ft 470 kts 111°
2026-05-07 11:54 52.06577 50.39382 32874 ft 469 kts 111°
2026-05-07 11:54 52.04136 50.49230 32862 ft 469 kts 111°
2026-05-07 11:55 52.01692 50.59046 32860 ft 469 kts 111°
2026-05-07 11:55 51.99256 50.68793 32869 ft 469 kts 111°
2026-05-07 11:56 51.96789 50.78597 32860 ft 467 kts 112°
2026-05-07 11:56 51.95155 50.83127 32852 ft 468 kts 129°
2026-05-07 11:56 51.92750 50.86692 32871 ft 473 kts 144°
2026-05-07 11:56 51.89837 50.89224 32867 ft 479 kts 159°
2026-05-07 11:57 51.86619 50.90673 32903 ft 481 kts 165°
2026-05-07 11:57 51.80065 50.93233 32879 ft 487 kts 164°
2026-05-07 11:58 51.73555 50.95999 32859 ft 479 kts 163°
2026-05-07 11:58 51.67307 50.99456 32876 ft 473 kts 153°
2026-05-07 11:59 51.61591 51.04628 32876 ft 471 kts 145°
2026-05-07 11:59 51.56189 51.10490 32885 ft 473 kts 144°
2026-05-07 12:00 51.50696 51.16361 32879 ft 475 kts 145°
2026-05-07 12:00 51.45169 51.22206 32878 ft 477 kts 145°
2026-05-07 12:01 51.39635 51.28091 32888 ft 478 kts 144°
2026-05-07 12:01 51.34101 51.34016 32883 ft 479 kts 144°
2026-05-07 12:02 51.28560 51.39923 32883 ft 479 kts 144°
2026-05-07 12:02 51.23003 51.45829 32886 ft 480 kts 144°
2026-05-07 12:03 51.17454 51.51774 32884 ft 480 kts 141°
2026-05-07 12:03 51.12504 51.58878 32885 ft 478 kts 130°
2026-05-07 12:04 51.08284 51.67020 32907 ft 477 kts 127°
2026-05-07 12:04 51.04113 51.75140 32884 ft 477 kts 127°
2026-05-07 12:05 50.99884 51.83273 32880 ft 477 kts 127°
2026-05-07 12:05 50.95643 51.91375 32881 ft 476 kts 128°
2026-05-07 12:06 50.91404 51.99444 32900 ft 476 kts 127°
2026-05-07 12:06 50.87160 52.07501 32887 ft 476 kts 127°
2026-05-07 12:07 50.82913 52.15539 32881 ft 475 kts 127°
2026-05-07 12:07 50.78675 52.23539 32882 ft 474 kts 127°
2026-05-07 12:08 50.74441 52.31505 32900 ft 473 kts 127°
2026-05-07 12:08 50.70208 52.39449 32877 ft 473 kts 127°
2026-05-07 12:09 50.65975 52.47390 32877 ft 472 kts 127°
2026-05-07 12:09 50.61778 52.55299 32873 ft 472 kts 127°
2026-05-07 12:10 50.57562 52.63228 32905 ft 473 kts 127°
2026-05-07 12:10 50.53325 52.71167 32887 ft 474 kts 127°
2026-05-07 12:11 50.49077 52.79097 32871 ft 474 kts 127°
2026-05-07 12:11 50.44826 52.87008 32877 ft 474 kts 127°
2026-05-07 12:12 50.40598 52.94853 32880 ft 474 kts 127°
2026-05-07 12:12 50.36336 53.02736 32871 ft 474 kts 127°
2026-05-07 12:13 50.32066 53.10610 32869 ft 474 kts 127°
2026-05-07 12:13 50.27789 53.18474 32873 ft 474 kts 127°
2026-05-07 12:14 50.23511 53.26316 32890 ft 474 kts 128°
2026-05-07 12:14 50.19219 53.34161 32885 ft 475 kts 128°
2026-05-07 12:15 50.14915 53.42002 32863 ft 476 kts 128°
2026-05-07 12:15 50.10600 53.49840 32856 ft 476 kts 128°
2026-05-07 12:16 50.06281 53.57664 32879 ft 477 kts 129°
2026-05-07 12:16 50.01940 53.65503 32869 ft 478 kts 129°
2026-05-07 12:17 49.97612 53.73294 32870 ft 480 kts 129°
2026-05-07 12:17 49.93239 53.81146 32866 ft 481 kts 129°
2026-05-07 12:18 49.88858 53.88988 32870 ft 481 kts 130°
2026-05-07 12:18 49.84456 53.96830 32863 ft 483 kts 130°
2026-05-07 12:19 49.80040 54.04673 32864 ft 483 kts 130°
2026-05-07 12:19 49.75616 54.12511 32866 ft 484 kts 130°
2026-05-07 12:20 49.71183 54.20343 32869 ft 484 kts 131°
2026-05-07 12:20 49.66750 54.28154 32865 ft 483 kts 131°
2026-05-07 12:21 49.62322 54.35933 32855 ft 482 kts 131°
2026-05-07 12:21 49.57914 54.43652 32860 ft 482 kts 131°
2026-05-07 12:22 49.53483 54.51395 32852 ft 482 kts 132°
2026-05-07 12:22 49.49027 54.59148 32864 ft 484 kts 133°
2026-05-07 12:23 49.44547 54.66920 32860 ft 486 kts 132°
2026-05-07 12:23 49.40060 54.74686 32859 ft 486 kts 133°
2026-05-07 12:24 49.35587 54.82403 32850 ft 486 kts 133°
2026-05-07 12:24 49.31083 54.90152 32853 ft 487 kts 133°
2026-05-07 12:25 49.26572 54.97890 32853 ft 487 kts 133°
2026-05-07 12:25 49.22054 55.05616 32840 ft 487 kts 134°
2026-05-07 12:26 49.17537 55.13323 32851 ft 486 kts 134°
2026-05-07 12:26 49.13010 55.21014 32853 ft 486 kts 134°
2026-05-07 12:27 49.08479 55.28682 32853 ft 486 kts 134°
2026-05-07 12:27 49.03943 55.36340 32842 ft 486 kts 134°
2026-05-07 12:28 48.99440 55.43923 32850 ft 484 kts 135°
2026-05-07 12:28 48.94924 55.51507 32852 ft 482 kts 135°
2026-05-07 12:29 48.90415 55.59057 32852 ft 482 kts 135°
2026-05-07 12:29 48.85907 55.66585 32860 ft 482 kts 135°
2026-05-07 12:30 48.81371 55.74113 32856 ft 484 kts 135°
2026-05-07 12:30 48.76812 55.81637 32857 ft 485 kts 135°
2026-05-07 12:31 48.72230 55.89187 32857 ft 486 kts 135°
2026-05-07 12:31 48.67642 55.96729 32845 ft 487 kts 135°
2026-05-07 12:32 48.63055 56.04273 32848 ft 487 kts 135°
2026-05-07 12:32 48.58468 56.11805 32851 ft 487 kts 135°
2026-05-07 12:33 48.51616 56.23010 32841 ft 486 kts 136°
2026-05-07 12:33 48.47025 56.30489 32851 ft 486 kts 136°
2026-05-07 12:34 48.42430 56.37959 32850 ft 486 kts 136°
2026-05-07 12:34 48.37834 56.45413 32831 ft 486 kts 136°
2026-05-07 12:35 48.33226 56.52861 32847 ft 486 kts 136°
2026-05-07 12:35 48.28614 56.60287 32854 ft 486 kts 136°
2026-05-07 12:36 48.24018 56.67669 32853 ft 487 kts 137°
2026-05-07 12:36 48.19393 56.75080 32848 ft 486 kts 137°
2026-05-07 12:37 48.14765 56.82476 32861 ft 486 kts 137°
2026-05-07 12:37 48.10907 56.88626 32856 ft 486 kts 137°
2026-05-07 12:38 48.06277 56.95989 32861 ft 486 kts 137°
2026-05-07 12:38 48.01642 57.03337 32862 ft 485 kts 138°
2026-05-07 12:39 47.97004 57.10669 32865 ft 485 kts 138°
2026-05-07 12:39 47.92364 57.17984 32867 ft 485 kts 138°
2026-05-07 12:40 47.87727 57.25274 32849 ft 484 kts 138°
2026-05-07 12:40 47.83090 57.32544 32866 ft 484 kts 138°
2026-05-07 12:41 47.78445 57.39806 32870 ft 484 kts 138°
2026-05-07 12:41 47.73801 57.47048 32878 ft 484 kts 138°
2026-05-07 12:42 47.69181 57.54233 32868 ft 484 kts 138°
2026-05-07 12:42 47.64525 57.61456 32865 ft 484 kts 138°
2026-05-07 12:43 47.59860 57.68657 32888 ft 484 kts 139°
2026-05-07 12:43 47.55184 57.75843 32860 ft 484 kts 139°
2026-05-07 12:44 47.50513 57.83004 32873 ft 483 kts 139°
2026-05-07 12:44 47.45878 57.90094 32882 ft 482 kts 139°
2026-05-07 12:45 47.41205 57.97225 32888 ft 482 kts 139°
2026-05-07 12:45 47.36534 58.04333 32875 ft 482 kts 139°
2026-05-07 12:46 47.31859 58.11431 32884 ft 482 kts 139°
2026-05-07 12:46 47.27177 58.18517 32885 ft 482 kts 139°
2026-05-07 12:47 47.22519 58.25552 32865 ft 482 kts 140°
2026-05-07 12:47 47.17832 58.32618 32864 ft 482 kts 140°
2026-05-07 12:48 47.13139 58.39674 32887 ft 482 kts 140°
2026-05-07 12:48 47.08439 58.46723 32892 ft 482 kts 140°
2026-05-07 12:49 47.03763 58.53718 32891 ft 482 kts 140°
2026-05-07 12:49 46.99057 58.60738 32890 ft 482 kts 140°
2026-05-07 12:50 46.94345 58.67747 32890 ft 482 kts 140°
2026-05-07 12:50 46.89623 58.74753 32865 ft 482 kts 140°
2026-05-07 12:51 46.84940 58.81683 32887 ft 482 kts 140°
2026-05-07 12:51 46.80220 58.88648 32893 ft 482 kts 140°
2026-05-07 12:52 46.75501 58.95594 32889 ft 482 kts 140°
2026-05-07 12:52 46.70782 59.02522 32889 ft 481 kts 141°
2026-05-07 12:53 46.66060 59.09437 32895 ft 482 kts 141°
2026-05-07 12:53 46.61325 59.16351 32889 ft 482 kts 141°
2026-05-07 12:54 46.56615 59.23212 32859 ft 482 kts 141°
2026-05-07 12:54 46.51874 59.30099 32882 ft 482 kts 141°
2026-05-07 12:55 46.47126 59.36979 32889 ft 482 kts 141°
2026-05-07 12:55 46.42371 59.43850 32888 ft 482 kts 141°
2026-05-07 12:56 46.37617 59.50704 32889 ft 482 kts 142°
2026-05-07 12:56 46.32883 59.57511 32880 ft 483 kts 142°
2026-05-07 12:57 46.28108 59.64361 32879 ft 483 kts 142°
2026-05-07 12:57 46.23329 59.71200 32861 ft 483 kts 142°
2026-05-07 12:58 46.18474 59.77874 32880 ft 480 kts 144°
2026-05-07 12:58 46.13524 59.84339 32893 ft 480 kts 144°
2026-05-07 12:59 46.08575 59.90800 32892 ft 481 kts 144°
2026-05-07 12:59 46.03669 59.97246 32890 ft 480 kts 144°
2026-05-07 13:00 45.98741 60.03725 32887 ft 480 kts 144°
2026-05-07 13:00 45.93814 60.10187 32897 ft 480 kts 144°
2026-05-07 13:01 45.88880 60.16640 32883 ft 479 kts 145°
2026-05-07 13:01 45.83950 60.23071 32898 ft 478 kts 145°
2026-05-07 13:02 45.79025 60.29479 32902 ft 478 kts 145°
2026-05-07 13:02 45.74094 60.35879 32880 ft 478 kts 145°
2026-05-07 13:03 45.69172 60.42251 32897 ft 477 kts 145°
2026-05-07 13:03 45.64282 60.48566 32912 ft 476 kts 145°
2026-05-07 13:04 45.59362 60.54905 32905 ft 476 kts 145°
2026-05-07 13:04 45.54443 60.61228 32912 ft 476 kts 145°
2026-05-07 13:05 45.49515 60.67548 32907 ft 477 kts 145°
2026-05-07 13:05 45.44562 60.73839 32907 ft 475 kts 148°
2026-05-07 13:06 45.39169 60.79062 32911 ft 464 kts 158°
2026-05-07 13:06 45.33392 60.83040 32913 ft 461 kts 161°
2026-05-07 13:07 45.27591 60.86977 32906 ft 462 kts 161°
2026-05-07 13:07 45.21832 60.90917 32880 ft 462 kts 161°
2026-05-07 13:08 45.16039 60.94889 32913 ft 462 kts 161°
2026-05-07 13:08 45.10239 60.98859 32915 ft 463 kts 161°
2026-05-07 13:09 45.04429 61.02825 32884 ft 463 kts 161°
2026-05-07 13:09 44.98617 61.06784 32910 ft 463 kts 161°
2026-05-07 13:10 44.92806 61.10732 32908 ft 463 kts 161°
2026-05-07 13:10 44.86991 61.14674 32906 ft 464 kts 161°
2026-05-07 13:11 44.81183 61.18604 32904 ft 463 kts 161°
2026-05-07 13:11 44.75400 61.22506 32912 ft 462 kts 161°
2026-05-07 13:12 44.69607 61.26407 32909 ft 462 kts 161°
2026-05-07 13:12 44.63818 61.30298 32906 ft 460 kts 161°
2026-05-07 13:13 44.58075 61.34148 32908 ft 459 kts 161°
2026-05-07 13:13 44.52297 61.38012 32911 ft 460 kts 161°
2026-05-07 13:14 44.46512 61.41873 32903 ft 460 kts 161°
2026-05-07 13:14 44.40716 61.45734 32906 ft 460 kts 161°
2026-05-07 13:15 44.34932 61.49577 32910 ft 460 kts 161°
2026-05-07 13:15 44.29145 61.53416 32914 ft 459 kts 161°
2026-05-07 13:16 44.23410 61.57211 32902 ft 459 kts 161°
2026-05-07 13:16 44.17630 61.61028 32900 ft 459 kts 161°
2026-05-07 13:17 44.11854 61.64835 32878 ft 458 kts 161°
2026-05-07 13:17 44.06089 61.68635 32891 ft 458 kts 161°
2026-05-07 13:18 44.00332 61.72422 32894 ft 458 kts 161°
2026-05-07 13:18 43.94606 61.76180 32867 ft 458 kts 161°
2026-05-07 13:19 43.88855 61.79948 32885 ft 457 kts 161°
2026-05-07 13:19 43.83090 61.83716 32887 ft 458 kts 161°
2026-05-07 13:20 43.77320 61.87478 32860 ft 458 kts 161°
2026-05-07 13:20 43.71545 61.91237 32878 ft 459 kts 161°
2026-05-07 13:21 43.65752 61.94999 32881 ft 460 kts 161°
2026-05-07 13:21 43.59990 61.98734 32876 ft 461 kts 161°
2026-05-07 13:22 43.54180 62.02493 32888 ft 461 kts 161°
2026-05-07 13:22 43.48363 62.06247 32890 ft 461 kts 161°
2026-05-07 13:23 43.42744 62.10637 32856 ft 469 kts 152°
2026-05-07 13:23 43.37410 62.15727 32875 ft 470 kts 152°
2026-05-07 13:24 43.32016 62.20813 32878 ft 470 kts 152°
2026-05-07 13:24 43.26601 62.25877 32848 ft 471 kts 152°
2026-05-07 13:25 43.21173 62.30933 32867 ft 472 kts 152°
2026-05-07 13:25 43.15734 62.35990 32869 ft 473 kts 152°
2026-05-07 13:26 43.10279 62.41052 32846 ft 474 kts 152°
2026-05-07 13:26 43.05747 62.45250 32862 ft 474 kts 152°
2026-05-07 13:27 43.00284 62.50300 32864 ft 474 kts 152°
2026-05-07 13:27 42.94825 62.55336 32833 ft 474 kts 152°
2026-05-07 13:28 42.89351 62.60374 32862 ft 473 kts 152°
2026-05-07 13:28 42.83924 62.65357 32863 ft 473 kts 152°
2026-05-07 13:29 42.78460 62.70364 32830 ft 473 kts 152°
2026-05-07 13:29 42.72986 62.75369 32853 ft 473 kts 152°
2026-05-07 13:30 42.67517 62.80359 32854 ft 474 kts 152°
2026-05-07 13:30 42.62040 62.85345 32846 ft 474 kts 151°
2026-05-07 13:31 42.56546 62.90337 32853 ft 475 kts 151°
2026-05-07 13:31 42.51049 62.95321 32854 ft 476 kts 151°
2026-05-07 13:32 42.45537 63.00308 32821 ft 476 kts 151°
2026-05-07 13:32 42.40051 63.05262 32841 ft 477 kts 151°
2026-05-07 13:33 42.34515 63.10246 32843 ft 478 kts 151°
2026-05-07 13:33 42.28968 63.15229 32815 ft 479 kts 151°
2026-05-07 13:34 42.20657 63.22682 32827 ft 480 kts 151°
2026-05-07 13:35 42.15085 63.27666 32804 ft 481 kts 150°
2026-05-07 13:35 42.09504 63.32645 32818 ft 481 kts 150°
2026-05-07 13:36 42.03907 63.37631 32822 ft 482 kts 150°
2026-05-07 13:36 41.98306 63.42609 32819 ft 483 kts 150°
2026-05-07 13:37 41.92736 63.47548 32820 ft 483 kts 151°
2026-05-07 13:37 41.87130 63.52509 32822 ft 482 kts 151°
2026-05-07 13:38 41.81528 63.57455 32811 ft 482 kts 150°
2026-05-07 13:38 41.75925 63.62393 32824 ft 481 kts 150°
2026-05-07 13:39 41.70332 63.67310 32831 ft 481 kts 150°
2026-05-07 13:39 41.64736 63.72220 32825 ft 480 kts 150°
2026-05-07 13:40 41.59133 63.77126 32833 ft 481 kts 150°
2026-05-07 13:40 41.53557 63.81997 32840 ft 483 kts 150°
2026-05-07 13:41 41.47923 63.86910 32837 ft 485 kts 150°
2026-05-07 13:41 41.42243 63.91854 32854 ft 488 kts 150°
2026-05-07 13:42 41.36541 63.96804 32846 ft 490 kts 150°
2026-05-07 13:42 41.30805 64.01768 32855 ft 492 kts 150°
2026-05-07 13:43 41.25099 64.06702 32855 ft 492 kts 150°
2026-05-07 13:43 41.19351 64.11664 32849 ft 491 kts 150°
2026-05-07 13:44 41.13620 64.16600 32861 ft 490 kts 150°
2026-05-07 13:44 41.07899 64.21516 32866 ft 489 kts 150°
2026-05-07 13:45 41.02183 64.26417 32863 ft 489 kts 150°
2026-05-07 13:45 40.96467 64.31308 32853 ft 489 kts 150°
2026-05-07 13:46 40.90739 64.36199 32856 ft 490 kts 150°
2026-05-07 13:46 40.85047 64.41050 32852 ft 490 kts 150°
2026-05-07 13:47 40.79309 64.45929 32864 ft 491 kts 150°
2026-05-07 13:47 40.73552 64.50814 32958 ft 491 kts 150°
2026-05-07 13:47 40.70689 64.53241 33168 ft 490 kts 150°
2026-05-07 13:48 40.67811 64.55677 33366 ft 491 kts 150°
2026-05-07 13:48 40.64930 64.58113 33604 ft 492 kts 150°
2026-05-07 13:48 40.62050 64.60544 33800 ft 492 kts 150°
2026-05-07 13:48 40.59163 64.62980 34003 ft 492 kts 150°
2026-05-07 13:49 40.56275 64.65414 34176 ft 493 kts 151°
2026-05-07 13:49 40.53423 64.67815 34350 ft 493 kts 150°
2026-05-07 13:49 40.50534 64.70246 34522 ft 494 kts 150°
2026-05-07 13:49 40.47633 64.72683 34710 ft 494 kts 150°
2026-05-07 13:50 40.44733 64.75117 34806 ft 497 kts 151°
2026-05-07 13:50 40.38886 64.80016 34880 ft 498 kts 151°
2026-05-07 13:51 40.33063 64.84889 34880 ft 495 kts 151°
2026-05-07 13:51 40.27261 64.89732 34893 ft 493 kts 151°
2026-05-07 13:52 40.21512 64.94520 34901 ft 493 kts 151°
2026-05-07 13:52 40.18611 64.96933 35121 ft 492 kts 151°
2026-05-07 13:52 40.15721 64.99333 35379 ft 491 kts 151°
2026-05-07 13:52 40.12836 65.01727 35614 ft 490 kts 151°
2026-05-07 13:53 40.09959 65.04113 35851 ft 490 kts 151°
2026-05-07 13:53 40.07080 65.06498 36080 ft 488 kts 151°
2026-05-07 13:53 40.04213 65.08870 36310 ft 487 kts 151°
2026-05-07 13:53 40.01354 65.11233 36560 ft 486 kts 151°
2026-05-07 13:54 39.98496 65.13593 36801 ft 486 kts 151°
2026-05-07 13:54 39.92747 65.18329 36889 ft 491 kts 151°
2026-05-07 13:55 39.86961 65.23087 36878 ft 498 kts 151°
2026-05-07 13:55 39.81061 65.27932 36910 ft 504 kts 151°
2026-05-07 13:56 39.75110 65.32810 36910 ft 507 kts 151°
2026-05-07 13:56 39.69189 65.37657 36881 ft 496 kts 151°
2026-05-07 13:57 39.63387 65.42397 36896 ft 490 kts 151°
2026-05-07 13:57 39.57615 65.47095 36899 ft 488 kts 151°
2026-05-07 13:58 39.51871 65.51762 36891 ft 487 kts 151°
2026-05-07 13:58 39.46130 65.56418 36910 ft 487 kts 151°
2026-05-07 13:59 39.40373 65.61078 36900 ft 489 kts 152°
2026-05-07 13:59 39.34631 65.65718 36898 ft 490 kts 151°
2026-05-07 14:00 39.28838 65.70390 36900 ft 491 kts 151°
2026-05-07 14:00 39.23026 65.75067 36906 ft 493 kts 151°
2026-05-07 14:01 39.17208 65.79741 36891 ft 493 kts 151°
2026-05-07 14:01 39.11375 65.84417 36895 ft 494 kts 151°
2026-05-07 14:02 39.05534 65.89091 36894 ft 494 kts 151°
2026-05-07 14:02 39.02612 65.91426 36757 ft 495 kts 151°
2026-05-07 14:02 38.99685 65.93761 36487 ft 494 kts 151°
2026-05-07 14:02 38.96777 65.96081 36219 ft 489 kts 151°
2026-05-07 14:03 38.93904 65.98372 35956 ft 483 kts 151°
2026-05-07 14:03 38.91059 66.00638 35704 ft 479 kts 151°
2026-05-07 14:03 38.88237 66.02882 35457 ft 475 kts 151°
2026-05-07 14:03 38.85440 66.05103 35211 ft 472 kts 151°
2026-05-07 14:04 38.82691 66.07284 34975 ft 469 kts 151°
2026-05-07 14:04 38.79926 66.09475 34724 ft 466 kts 151°
2026-05-07 14:04 38.77169 66.11659 34489 ft 464 kts 150°
2026-05-07 14:04 38.74419 66.13835 34261 ft 463 kts 150°
2026-05-07 14:05 38.71686 66.15996 34040 ft 461 kts 150°
2026-05-07 14:05 38.68961 66.18149 33798 ft 460 kts 150°
2026-05-07 14:05 38.66241 66.20297 33541 ft 459 kts 150°
2026-05-07 14:05 38.63525 66.22439 33273 ft 458 kts 150°
2026-05-07 14:06 38.60815 66.24578 33006 ft 456 kts 150°
2026-05-07 14:06 38.55517 66.28843 32934 ft 453 kts 150°
2026-05-07 14:07 38.50177 66.33167 32942 ft 456 kts 150°
2026-05-07 14:07 38.44794 66.37509 32925 ft 459 kts 150°
2026-05-07 14:08 38.39378 66.41865 32952 ft 460 kts 150°
2026-05-07 14:08 38.33960 66.46212 32961 ft 460 kts 150°
2026-05-07 14:09 38.28554 66.50542 32972 ft 460 kts 150°
2026-05-07 14:09 38.23032 66.54953 32998 ft 477 kts 150°
2026-05-07 14:10 38.17314 66.59516 33021 ft 493 kts 149°
2026-05-07 14:10 38.11437 66.64199 33010 ft 503 kts 149°
2026-05-07 14:11 38.05469 66.68947 32990 ft 507 kts 149°
2026-05-07 14:11 37.99490 66.73684 32993 ft 506 kts 150°
2026-05-07 14:12 37.93489 66.78361 32978 ft 506 kts 150°
2026-05-07 14:12 37.87491 66.83011 32953 ft 505 kts 150°
2026-05-07 14:13 37.81507 66.87650 32942 ft 504 kts 150°
2026-05-07 14:13 37.75524 66.92287 32919 ft 504 kts 150°
2026-05-07 14:14 37.69589 66.96880 32884 ft 503 kts 150°
2026-05-07 14:14 37.63620 67.01489 32904 ft 503 kts 150°
2026-05-07 14:15 37.57640 67.06096 32869 ft 503 kts 150°
2026-05-07 14:15 37.51662 67.10695 32859 ft 504 kts 150°
2026-05-07 14:16 37.45666 67.15297 32865 ft 505 kts 150°
2026-05-07 14:16 37.40677 67.19122 32862 ft 506 kts 150°
2026-05-07 14:17 37.34658 67.23727 32867 ft 506 kts 150°
2026-05-07 14:17 37.28637 67.28326 32856 ft 506 kts 150°
2026-05-07 14:18 37.22621 67.32912 32864 ft 506 kts 150°
2026-05-07 14:18 37.16553 67.37393 32867 ft 506 kts 152°
2026-05-07 14:19 37.10383 67.41622 32862 ft 506 kts 153°
2026-05-07 14:19 37.04204 67.45848 32873 ft 506 kts 153°
2026-05-07 14:20 36.98028 67.50117 32883 ft 507 kts 152°
2026-05-07 14:20 36.91885 67.54375 32891 ft 508 kts 152°
2026-05-07 14:21 36.85690 67.58659 32898 ft 508 kts 152°
2026-05-07 14:21 36.79495 67.62932 32909 ft 509 kts 152°
2026-05-07 14:22 36.73292 67.67204 32925 ft 509 kts 152°
2026-05-07 14:22 36.67093 67.71469 32941 ft 509 kts 152°
2026-05-07 14:23 36.60892 67.75742 32940 ft 509 kts 152°
2026-05-07 14:23 36.54688 67.80014 32934 ft 509 kts 152°
2026-05-07 14:24 36.48535 67.84239 32944 ft 509 kts 152°
2026-05-07 14:24 36.42325 67.88495 32969 ft 509 kts 152°
2026-05-07 14:25 36.36118 67.92741 33000 ft 510 kts 152°
2026-05-07 14:25 36.29893 67.96992 32972 ft 511 kts 153°
2026-05-07 14:26 36.23656 68.01244 33006 ft 512 kts 153°
2026-05-07 14:26 36.17405 68.05497 33028 ft 513 kts 153°
2026-05-07 14:27 36.11178 68.09726 33037 ft 514 kts 153°
2026-05-07 14:27 36.04894 68.13986 33046 ft 515 kts 153°
2026-05-07 14:28 35.98594 68.18249 33074 ft 516 kts 153°
2026-05-07 14:28 35.92302 68.22499 33074 ft 515 kts 153°
2026-05-07 14:29 35.86005 68.26744 33091 ft 515 kts 153°
2026-05-07 14:29 35.79753 68.30952 33091 ft 516 kts 153°
2026-05-07 14:30 35.73454 68.35184 33075 ft 515 kts 153°
2026-05-07 14:30 35.67153 68.39410 33085 ft 517 kts 153°
2026-05-07 14:31 35.60824 68.43644 33096 ft 518 kts 153°
2026-05-07 14:31 35.54487 68.47869 33094 ft 517 kts 153°
2026-05-07 14:32 35.48147 68.52058 33102 ft 517 kts 153°
2026-05-07 14:32 35.41808 68.56237 33136 ft 517 kts 153°
2026-05-07 14:33 35.35504 68.60395 33153 ft 519 kts 153°
2026-05-07 14:33 35.29143 68.64583 33154 ft 519 kts 153°
2026-05-07 14:34 35.22783 68.68766 33155 ft 519 kts 153°
2026-05-07 14:34 35.16407 68.72950 33135 ft 519 kts 153°
2026-05-07 14:35 35.10035 68.77123 33110 ft 521 kts 153°
2026-05-07 14:35 35.03636 68.81303 33090 ft 521 kts 153°
2026-05-07 14:36 34.97228 68.85490 33096 ft 523 kts 153°
2026-05-07 14:36 34.90844 68.89653 33031 ft 524 kts 153°
2026-05-07 14:37 34.84402 68.93842 33000 ft 525 kts 153°
2026-05-07 14:37 34.74729 69.00119 32959 ft 524 kts 153°
2026-05-07 14:38 34.68292 69.04286 32969 ft 524 kts 153°
2026-05-07 14:38 34.61898 69.08422 32965 ft 524 kts 153°
2026-05-07 14:39 34.55502 69.12690 32932 ft 524 kts 147°
2026-05-07 14:39 34.52670 69.15477 32934 ft 525 kts 135°
2026-05-07 14:39 34.50248 69.18791 32933 ft 525 kts 127°
2026-05-07 14:40 34.48284 69.22506 32940 ft 523 kts 116°
2026-05-07 14:40 34.46654 69.26445 32932 ft 523 kts 115°
2026-05-07 14:40 34.43421 69.34362 32914 ft 524 kts 115°
2026-05-07 14:41 34.40120 69.42242 32927 ft 525 kts 116°
2026-05-07 14:41 34.36780 69.50061 32950 ft 526 kts 116°
2026-05-07 14:42 34.33404 69.57925 32940 ft 526 kts 116°
2026-05-07 14:42 34.30036 69.65769 32959 ft 525 kts 116°
2026-05-07 14:43 34.26670 69.73594 32940 ft 524 kts 116°
2026-05-07 14:43 34.23298 69.81416 32944 ft 523 kts 116°
2026-05-07 14:44 34.19931 69.89215 32954 ft 523 kts 116°
2026-05-07 14:44 34.16559 69.96992 32951 ft 522 kts 117°
2026-05-07 14:45 34.13199 70.04695 32948 ft 521 kts 117°
2026-05-07 14:45 34.09815 70.12433 32940 ft 521 kts 117°
2026-05-07 14:46 34.06424 70.20177 32925 ft 523 kts 117°
2026-05-07 14:46 34.03025 70.27926 32920 ft 523 kts 117°
2026-05-07 14:47 33.99622 70.35669 32922 ft 523 kts 117°
2026-05-07 14:47 33.96175 70.43373 32907 ft 520 kts 122°
2026-05-07 14:48 33.93843 70.46694 32947 ft 520 kts 140°
2026-05-07 14:48 33.90844 70.49105 32929 ft 518 kts 155°
2026-05-07 14:48 33.87477 70.50624 32932 ft 517 kts 169°
2026-05-07 14:48 33.83928 70.51200 32951 ft 514 kts 178°
2026-05-07 14:49 33.76795 70.51722 32957 ft 519 kts 179°
2026-05-07 14:49 33.69546 70.52299 32952 ft 523 kts 178°
2026-05-07 14:50 33.62279 70.52979 32928 ft 524 kts 178°
2026-05-07 14:50 33.55017 70.53692 32899 ft 523 kts 178°
2026-05-07 14:51 33.47776 70.54406 32914 ft 521 kts 178°
2026-05-07 14:51 33.40554 70.55101 32865 ft 520 kts 178°
2026-05-07 14:52 33.33323 70.55791 32850 ft 520 kts 178°
2026-05-07 14:52 33.26150 70.56477 32828 ft 520 kts 178°
2026-05-07 14:53 33.18933 70.57170 32834 ft 520 kts 178°
2026-05-07 14:53 33.11711 70.57862 32807 ft 521 kts 178°
2026-05-07 14:54 33.04474 70.58554 32805 ft 523 kts 178°
2026-05-07 14:54 32.97227 70.59050 32792 ft 518 kts 187°
2026-05-07 14:55 32.93686 70.58397 32791 ft 512 kts 198°
2026-05-07 14:55 32.90326 70.57047 32799 ft 508 kts 208°
2026-05-07 14:55 32.84346 70.52774 32790 ft 501 kts 218°
2026-05-07 14:56 32.78545 70.48209 32790 ft 504 kts 218°
2026-05-07 14:56 32.72625 70.43687 32805 ft 506 kts 217°
2026-05-07 14:57 32.66681 70.39186 32794 ft 506 kts 217°
2026-05-07 14:57 32.60710 70.34734 32787 ft 507 kts 216°
2026-05-07 14:58 32.54606 70.30514 32822 ft 508 kts 215°
2026-05-07 14:58 32.48491 70.26307 32819 ft 508 kts 215°
2026-05-07 14:59 32.42397 70.22062 32818 ft 508 kts 215°
2026-05-07 14:59 32.36307 70.17817 32824 ft 507 kts 216°
2026-05-07 15:00 32.30315 70.13538 32861 ft 505 kts 216°
2026-05-07 15:00 32.24309 70.09240 32835 ft 503 kts 217°
2026-05-07 15:01 32.18352 70.04889 32830 ft 503 kts 217°
2026-05-07 15:01 32.12382 70.00560 32837 ft 504 kts 216°
2026-05-07 15:02 32.06372 69.96258 32826 ft 505 kts 216°
2026-05-07 15:02 32.00395 69.91994 32854 ft 505 kts 216°
2026-05-07 15:03 31.94363 69.87679 32838 ft 507 kts 216°
2026-05-07 15:03 31.88329 69.83368 32846 ft 507 kts 217°
2026-05-07 15:04 31.83319 69.79787 32826 ft 506 kts 216°
2026-05-07 15:04 31.77295 69.75508 32855 ft 505 kts 217°
2026-05-07 15:05 31.71301 69.71250 32862 ft 505 kts 217°
2026-05-07 15:05 31.65270 69.66967 32868 ft 506 kts 217°
2026-05-07 15:06 31.59245 69.62697 32870 ft 506 kts 217°
2026-05-07 15:06 31.53207 69.58422 32884 ft 505 kts 217°
2026-05-07 15:07 31.47177 69.54165 32872 ft 506 kts 217°
2026-05-07 15:07 31.41175 69.49929 32868 ft 507 kts 217°
2026-05-07 15:08 31.34663 69.46545 32881 ft 521 kts 201°
2026-05-07 15:08 31.27425 69.45212 32885 ft 532 kts 187°
2026-05-07 15:09 31.20006 69.44801 32894 ft 534 kts 187°
2026-05-07 15:09 31.12588 69.44381 32888 ft 533 kts 187°
2026-05-07 15:10 31.05193 69.43888 32888 ft 532 kts 187°
2026-05-07 15:10 30.97817 69.43366 32897 ft 530 kts 187°
2026-05-07 15:11 30.90504 69.42848 32875 ft 529 kts 187°
2026-05-07 15:11 30.83164 69.42335 32887 ft 527 kts 187°
2026-05-07 15:12 30.75842 69.41826 32880 ft 526 kts 187°
2026-05-07 15:12 30.68524 69.41318 32875 ft 526 kts 187°
2026-05-07 15:13 30.61215 69.40811 32873 ft 526 kts 187°
2026-05-07 15:13 30.53896 69.40304 32856 ft 527 kts 187°
2026-05-07 15:14 30.46576 69.39798 32851 ft 527 kts 187°
2026-05-07 15:14 30.39298 69.39296 32816 ft 527 kts 187°
2026-05-07 15:15 30.31975 69.38791 32824 ft 527 kts 187°
2026-05-07 15:15 30.24655 69.38287 32827 ft 527 kts 187°
2026-05-07 15:16 30.17392 69.37787 32831 ft 527 kts 187°
2026-05-07 15:16 30.10128 69.37287 32819 ft 527 kts 187°
2026-05-07 15:17 30.02763 69.36781 32830 ft 528 kts 187°
2026-05-07 15:17 29.95423 69.36277 32826 ft 529 kts 187°
2026-05-07 15:18 29.88068 69.35774 32826 ft 530 kts 187°
2026-05-07 15:18 29.80706 69.35271 32816 ft 530 kts 188°
2026-05-07 15:19 29.73317 69.34766 32815 ft 533 kts 188°
2026-05-07 15:19 29.65963 69.34265 32815 ft 535 kts 188°
2026-05-07 15:20 29.58514 69.33758 32812 ft 537 kts 188°
2026-05-07 15:20 29.51068 69.33252 32793 ft 536 kts 188°
2026-05-07 15:21 29.43636 69.32748 32797 ft 534 kts 188°
2026-05-07 15:21 29.36193 69.32246 32795 ft 533 kts 188°
2026-05-07 15:22 29.28790 69.31745 32773 ft 533 kts 188°
2026-05-07 15:22 29.21372 69.31242 32779 ft 534 kts 188°
2026-05-07 15:23 29.13989 69.30743 32776 ft 535 kts 188°
2026-05-07 15:23 29.06495 69.30239 32765 ft 537 kts 188°
2026-05-07 15:24 28.99088 69.29736 32753 ft 538 kts 189°
2026-05-07 15:24 28.91593 69.29225 32747 ft 540 kts 189°
2026-05-07 15:25 28.84085 69.28716 32731 ft 541 kts 189°
2026-05-07 15:25 28.76562 69.28208 32727 ft 542 kts 189°
2026-05-07 15:26 28.69023 69.27700 32702 ft 542 kts 189°
2026-05-07 15:26 28.61494 69.27203 32696 ft 541 kts 189°
2026-05-07 15:27 28.53999 69.26710 32703 ft 541 kts 189°
2026-05-07 15:27 28.46490 69.26216 32657 ft 541 kts 189°
2026-05-07 15:28 28.38983 69.25723 32671 ft 540 kts 189°
2026-05-07 15:28 28.31476 69.25229 32674 ft 539 kts 189°
2026-05-07 15:29 28.23991 69.24737 32672 ft 539 kts 189°
2026-05-07 15:29 28.16490 69.24246 32655 ft 539 kts 189°
2026-05-07 15:30 28.09047 69.23758 32666 ft 540 kts 189°
2026-05-07 15:30 28.01541 69.23268 32673 ft 541 kts 189°
2026-05-07 15:31 27.94065 69.22523 32655 ft 535 kts 197°
2026-05-07 15:31 27.86917 69.20387 32660 ft 525 kts 207°
2026-05-07 15:32 27.80290 69.17140 32672 ft 519 kts 212°
2026-05-07 15:32 27.73715 69.13741 32658 ft 521 kts 212°
2026-05-07 15:33 27.67111 69.10393 32670 ft 522 kts 212°
2026-05-07 15:33 27.60468 69.07059 32652 ft 523 kts 212°
2026-05-07 15:34 27.53817 69.03723 32663 ft 522 kts 212°
2026-05-07 15:34 27.47192 69.00399 32664 ft 521 kts 212°
2026-05-07 15:35 27.40600 68.97104 32665 ft 521 kts 212°
2026-05-07 15:35 27.33976 68.93807 32669 ft 520 kts 212°
2026-05-07 15:36 27.27354 68.90515 32663 ft 519 kts 211°
2026-05-07 15:36 27.20746 68.87231 32674 ft 519 kts 211°
2026-05-07 15:37 27.14139 68.83951 32662 ft 518 kts 211°
2026-05-07 15:37 27.07549 68.80684 32679 ft 518 kts 211°
2026-05-07 15:38 27.00955 68.77419 32676 ft 518 kts 211°
2026-05-07 15:38 26.94361 68.74159 32680 ft 517 kts 211°
2026-05-07 15:39 26.87824 68.70931 32689 ft 516 kts 211°
2026-05-07 15:39 26.81232 68.67680 32686 ft 516 kts 211°
2026-05-07 15:40 26.74699 68.64462 32690 ft 516 kts 211°
2026-05-07 15:40 26.68122 68.61226 32690 ft 516 kts 211°
2026-05-07 15:41 26.61550 68.57997 32693 ft 516 kts 211°
2026-05-07 15:41 26.54954 68.54760 32699 ft 516 kts 211°
2026-05-07 15:42 26.48372 68.51533 32688 ft 516 kts 211°
2026-05-07 15:42 26.41800 68.48317 32694 ft 515 kts 211°
2026-05-07 15:43 26.35297 68.45138 32706 ft 513 kts 210°
2026-05-07 15:43 26.28766 68.41947 32685 ft 513 kts 210°
2026-05-07 15:44 26.21909 68.39505 32714 ft 527 kts 194°
2026-05-07 15:44 26.14493 68.39581 32719 ft 542 kts 175°
2026-05-07 15:45 26.07050 68.41070 32699 ft 543 kts 174°
2026-05-07 15:45 25.99604 68.42572 32713 ft 543 kts 174°
2026-05-07 15:46 25.88486 68.44653 32724 ft 542 kts 175°
2026-05-07 15:47 25.80999 68.46020 32713 ft 542 kts 175°
2026-05-07 15:47 25.73615 68.47373 32717 ft 540 kts 175°
2026-05-07 15:48 25.66193 68.48736 32730 ft 539 kts 175°
2026-05-07 15:48 25.58798 68.50093 32735 ft 538 kts 175°
2026-05-07 15:49 25.51402 68.51448 32731 ft 538 kts 175°
2026-05-07 15:49 25.44062 68.52791 32747 ft 537 kts 175°
2026-05-07 15:50 25.36685 68.54139 32746 ft 538 kts 175°
2026-05-07 15:50 25.29296 68.55488 32756 ft 538 kts 175°
2026-05-07 15:51 25.21898 68.56836 32748 ft 538 kts 175°
2026-05-07 15:51 25.14501 68.58180 32758 ft 538 kts 175°
2026-05-07 15:52 25.07112 68.59521 32760 ft 538 kts 175°
2026-05-07 15:52 24.99721 68.60861 32767 ft 538 kts 175°
2026-05-07 15:53 24.92335 68.62198 32760 ft 537 kts 174°
2026-05-07 15:53 24.85010 68.63524 32766 ft 536 kts 174°
2026-05-07 15:54 24.78837 68.64639 32774 ft 535 kts 174°
2026-05-07 15:54 24.71539 68.65956 32776 ft 535 kts 174°
2026-05-07 15:55 24.64186 68.67281 32771 ft 534 kts 174°
2026-05-07 15:55 24.56861 68.68601 32773 ft 533 kts 174°
2026-05-07 15:56 24.49544 68.69917 32775 ft 532 kts 174°
2026-05-07 15:56 24.42231 68.71231 32788 ft 532 kts 174°
2026-05-07 15:57 24.34917 68.72543 32787 ft 532 kts 174°
2026-05-07 15:57 24.27669 68.73842 32792 ft 531 kts 174°
2026-05-07 15:58 24.20359 68.75151 32793 ft 531 kts 174°
2026-05-07 15:58 24.13256 68.77331 32796 ft 537 kts 153°
2026-05-07 15:58 24.10209 68.79642 32795 ft 542 kts 140°
2026-05-07 15:59 24.07667 68.82687 32793 ft 541 kts 124°
2026-05-07 15:59 24.03567 68.89590 32809 ft 543 kts 123°
2026-05-07 16:00 23.99381 68.96499 32814 ft 547 kts 124°
2026-05-07 16:00 23.95096 69.03401 32811 ft 549 kts 124°
2026-05-07 16:01 23.90778 69.10294 32812 ft 549 kts 124°
2026-05-07 16:01 23.86467 69.17173 32807 ft 548 kts 124°
2026-05-07 16:02 23.82193 69.23996 32808 ft 547 kts 124°
2026-05-07 16:02 23.77892 69.30856 32805 ft 546 kts 124°
2026-05-07 16:03 23.73597 69.37698 32806 ft 546 kts 124°
2026-05-07 16:03 23.69296 69.44539 32808 ft 546 kts 124°
2026-05-07 16:04 23.64996 69.51368 32811 ft 546 kts 124°
2026-05-07 16:04 23.60691 69.58197 32808 ft 546 kts 124°
2026-05-07 16:05 23.56384 69.65020 32812 ft 546 kts 124°
2026-05-07 16:05 23.52075 69.71836 32806 ft 546 kts 124°
2026-05-07 16:06 23.47787 69.78610 32811 ft 546 kts 124°
2026-05-07 16:06 23.43511 69.85356 32806 ft 546 kts 124°
2026-05-07 16:07 23.39185 69.92173 32812 ft 547 kts 124°
2026-05-07 16:07 23.34855 69.98985 32807 ft 547 kts 124°
2026-05-07 16:08 23.30551 70.05750 32811 ft 546 kts 124°
2026-05-07 16:08 23.26220 70.12545 32806 ft 545 kts 124°
2026-05-07 16:09 23.21894 70.19325 32808 ft 545 kts 124°
2026-05-07 16:09 23.17563 70.26104 32805 ft 546 kts 125°
2026-05-07 16:10 23.13228 70.32881 32812 ft 547 kts 125°
2026-05-07 16:10 23.08883 70.39664 32797 ft 546 kts 125°
2026-05-07 16:11 23.04535 70.46442 32804 ft 546 kts 125°
2026-05-07 16:11 23.00222 70.53159 32810 ft 545 kts 125°
2026-05-07 16:12 22.95881 70.59910 32816 ft 546 kts 125°
2026-05-07 16:12 22.91530 70.66667 32815 ft 546 kts 125°
2026-05-07 16:13 22.87175 70.73426 32820 ft 547 kts 125°
2026-05-07 16:13 22.82638 70.80010 32800 ft 543 kts 135°
2026-05-07 16:14 22.76797 70.85030 32827 ft 537 kts 151°
2026-05-07 16:14 22.70028 70.88325 32834 ft 532 kts 161°
2026-05-07 16:15 22.63124 70.91299 32825 ft 535 kts 161°
2026-05-07 16:15 22.56219 70.94381 32820 ft 537 kts 160°
2026-05-07 16:16 22.49312 70.97511 32857 ft 538 kts 160°
2026-05-07 16:16 22.42447 71.00612 32857 ft 538 kts 159°
2026-05-07 16:17 22.35880 71.04541 32857 ft 541 kts 148°
2026-05-07 16:17 22.29988 71.09620 32856 ft 543 kts 139°
2026-05-07 16:18 22.24428 71.15109 32847 ft 540 kts 139°
2026-05-07 16:18 22.18884 71.20563 32830 ft 538 kts 139°
2026-05-07 16:19 22.13320 71.25970 32809 ft 537 kts 139°
2026-05-07 16:19 22.07756 71.31345 32807 ft 536 kts 140°
2026-05-07 16:20 22.02240 71.36668 32806 ft 536 kts 140°
2026-05-07 16:20 21.96687 71.42024 32807 ft 535 kts 139°
2026-05-07 16:21 21.91147 71.47365 32804 ft 534 kts 139°
2026-05-07 16:21 21.85605 71.52702 32809 ft 534 kts 140°
2026-05-07 16:22 21.80070 71.58026 32801 ft 534 kts 139°
2026-05-07 16:22 21.74514 71.63364 32805 ft 535 kts 139°
2026-05-07 16:23 21.68951 71.68703 32811 ft 535 kts 139°
2026-05-07 16:23 21.63391 71.74033 32803 ft 535 kts 139°
2026-05-07 16:24 21.57833 71.79356 32806 ft 535 kts 139°
2026-05-07 16:24 21.52278 71.84671 32804 ft 535 kts 139°
2026-05-07 16:25 21.46756 71.89948 32802 ft 534 kts 139°
2026-05-07 16:25 21.41199 71.95254 32806 ft 534 kts 139°
2026-05-07 16:26 21.35651 72.00544 32808 ft 533 kts 139°
2026-05-07 16:26 21.30100 72.05832 32806 ft 533 kts 139°
2026-05-07 16:27 21.24554 72.11111 32806 ft 532 kts 139°
2026-05-07 16:27 21.19013 72.16378 32809 ft 532 kts 140°
2026-05-07 16:28 21.13468 72.21645 32809 ft 532 kts 140°
2026-05-07 16:28 21.07945 72.26885 32816 ft 533 kts 140°
2026-05-07 16:29 21.02388 72.32153 32804 ft 534 kts 140°
2026-05-07 16:29 20.96722 72.37282 32802 ft 533 kts 147°
2026-05-07 16:30 20.90183 72.40931 32814 ft 528 kts 161°
2026-05-07 16:30 20.83127 72.42938 32814 ft 524 kts 170°
2026-05-07 16:31 20.76053 72.44639 32813 ft 525 kts 169°
2026-05-07 16:31 20.68943 72.46475 32810 ft 525 kts 169°
2026-05-07 16:32 20.61826 72.48316 32816 ft 525 kts 169°
2026-05-07 16:32 20.54724 72.50144 32810 ft 525 kts 168°
2026-05-07 16:33 20.47619 72.51971 32818 ft 524 kts 169°
2026-05-07 16:33 20.40523 72.53794 32821 ft 524 kts 168°
2026-05-07 16:34 20.33484 72.55602 32828 ft 524 kts 169°
2026-05-07 16:34 20.26393 72.57421 32828 ft 524 kts 169°
2026-05-07 16:35 20.19302 72.59238 32834 ft 524 kts 168°
2026-05-07 16:35 20.12874 72.60884 32847 ft 524 kts 169°
2026-05-07 16:36 20.05770 72.62702 32841 ft 525 kts 169°
2026-05-07 16:36 19.98656 72.64520 32842 ft 525 kts 169°
2026-05-07 16:37 19.91545 72.66337 32838 ft 525 kts 169°
2026-05-07 16:37 19.84445 72.68148 32845 ft 525 kts 169°
2026-05-07 16:38 19.77394 72.69946 32843 ft 524 kts 169°
2026-05-07 16:38 19.70303 72.71752 32834 ft 524 kts 169°
2026-05-07 16:39 19.63210 72.73557 32836 ft 523 kts 169°
2026-05-07 16:39 19.56138 72.75354 32829 ft 522 kts 168°
2026-05-07 16:40 19.49069 72.77150 32824 ft 522 kts 168°
2026-05-07 16:40 19.42015 72.78940 32824 ft 521 kts 168°
2026-05-07 16:41 19.34953 72.80731 32818 ft 521 kts 168°
2026-05-07 16:41 19.27902 72.82517 32813 ft 521 kts 168°
2026-05-07 16:42 19.20911 72.84287 32815 ft 520 kts 168°
2026-05-07 16:42 19.13866 72.86068 32830 ft 520 kts 168°
2026-05-07 16:43 19.06832 72.87846 32827 ft 520 kts 168°
2026-05-07 16:43 18.99799 72.89631 32830 ft 520 kts 168°
2026-05-07 16:44 18.93953 72.91117 32821 ft 520 kts 168°
2026-05-07 16:44 18.86924 72.92902 32822 ft 520 kts 168°
2026-05-07 16:45 18.79890 72.94686 32823 ft 520 kts 168°
2026-05-07 16:45 18.72851 72.96470 32863 ft 520 kts 168°
2026-05-07 16:46 18.65858 72.98239 32856 ft 520 kts 168°
2026-05-07 16:46 18.58819 73.00020 32862 ft 520 kts 168°
2026-05-07 16:47 18.51774 73.01801 32861 ft 520 kts 168°
2026-05-07 16:47 18.44725 73.03580 32863 ft 521 kts 168°
2026-05-07 16:48 18.37681 73.05357 32867 ft 520 kts 168°
2026-05-07 16:48 18.30634 73.07133 32867 ft 520 kts 168°
2026-05-07 16:49 18.23596 73.08906 32873 ft 519 kts 168°
2026-05-07 16:49 18.16566 73.10675 32870 ft 519 kts 168°
2026-05-07 16:50 18.09589 73.12429 32875 ft 518 kts 168°
2026-05-07 16:50 18.02568 73.14193 32871 ft 518 kts 168°
2026-05-07 16:51 17.95555 73.15954 32866 ft 518 kts 168°
2026-05-07 16:51 17.88542 73.17713 32868 ft 518 kts 168°
2026-05-07 16:52 17.81520 73.19473 32873 ft 518 kts 168°
2026-05-07 16:52 17.74496 73.21231 32873 ft 519 kts 168°
2026-05-07 16:53 17.67473 73.22989 32857 ft 518 kts 168°
2026-05-07 16:53 17.60499 73.24732 32884 ft 517 kts 168°
2026-05-07 16:54 17.53491 73.26483 32866 ft 517 kts 168°
2026-05-07 16:54 17.46490 73.28231 32875 ft 517 kts 168°
2026-05-07 16:55 17.39486 73.29978 32869 ft 517 kts 168°
2026-05-07 16:55 17.32482 73.31724 32881 ft 516 kts 167°
2026-05-07 16:56 17.25504 73.33462 32860 ft 514 kts 167°
2026-05-07 16:56 17.15209 73.36388 32854 ft 514 kts 159°
2026-05-07 16:57 17.08794 73.39679 32870 ft 514 kts 148°
2026-05-07 16:57 17.02777 73.43736 32872 ft 514 kts 147°
2026-05-07 16:58 16.96769 73.47786 32886 ft 514 kts 148°
2026-05-07 16:58 16.90736 73.51784 32902 ft 513 kts 148°
2026-05-07 16:59 16.84695 73.55775 32884 ft 513 kts 148°
2026-05-07 16:59 16.78475 73.59427 32900 ft 513 kts 153°
2026-05-07 17:00 16.72130 73.62846 32889 ft 513 kts 153°
2026-05-07 17:00 16.65829 73.66256 32902 ft 514 kts 153°
2026-05-07 17:01 16.59489 73.69719 32913 ft 514 kts 153°
2026-05-07 17:01 16.53148 73.73187 32910 ft 514 kts 153°
2026-05-07 17:02 16.46806 73.76650 32900 ft 515 kts 153°
2026-05-07 17:02 16.40450 73.80117 32896 ft 515 kts 153°
2026-05-07 17:03 16.34064 73.83472 32917 ft 513 kts 154°
2026-05-07 17:03 16.27628 73.86685 32909 ft 513 kts 154°
2026-05-07 17:04 16.21217 73.89929 32888 ft 512 kts 154°
2026-05-07 17:04 16.14817 73.93171 32892 ft 512 kts 154°
2026-05-07 17:05 16.08415 73.96396 32918 ft 511 kts 154°
2026-05-07 17:05 16.02055 73.99597 32910 ft 511 kts 154°
2026-05-07 17:06 15.95663 74.02815 32900 ft 510 kts 154°
2026-05-07 17:06 15.89272 74.06032 32896 ft 510 kts 154°
2026-05-07 17:07 15.82885 74.09245 32921 ft 510 kts 154°
2026-05-07 17:07 15.76490 74.12459 32908 ft 510 kts 154°
2026-05-07 17:08 15.70106 74.15665 32904 ft 510 kts 154°
2026-05-07 17:08 15.63727 74.18867 32899 ft 509 kts 154°
2026-05-07 17:09 15.57351 74.22065 32912 ft 509 kts 154°
2026-05-07 17:09 15.51020 74.25238 32909 ft 508 kts 154°
2026-05-07 17:10 15.44651 74.28428 32898 ft 509 kts 154°
2026-05-07 17:10 15.38022 74.31746 32898 ft 508 kts 154°
2026-05-07 17:11 15.31657 74.34930 32886 ft 508 kts 154°
2026-05-07 17:11 15.25288 74.38113 32905 ft 507 kts 154°
2026-05-07 17:12 15.18935 74.41287 32892 ft 507 kts 154°
2026-05-07 17:12 15.12579 74.44460 32894 ft 507 kts 154°
2026-05-07 17:13 15.06231 74.47638 32881 ft 506 kts 154°
2026-05-07 17:13 14.99887 74.50830 32894 ft 506 kts 154°
2026-05-07 17:14 14.93600 74.53993 32886 ft 506 kts 154°
2026-05-07 17:14 14.87270 74.57173 32885 ft 505 kts 154°
2026-05-07 17:15 14.80947 74.60346 32882 ft 505 kts 154°
2026-05-07 17:15 14.74614 74.63522 32884 ft 506 kts 154°
2026-05-07 17:16 14.68274 74.66699 32893 ft 506 kts 154°
2026-05-07 17:16 14.61939 74.69873 32894 ft 506 kts 154°
2026-05-07 17:17 14.55648 74.73023 32891 ft 506 kts 154°
2026-05-07 17:17 14.49359 74.76169 32891 ft 505 kts 154°
2026-05-07 17:18 14.43036 74.79357 32902 ft 505 kts 154°
2026-05-07 17:18 14.36729 74.82570 32903 ft 505 kts 153°
2026-05-07 17:19 14.30429 74.85778 32902 ft 505 kts 153°
2026-05-07 17:19 14.24122 74.88982 32903 ft 505 kts 154°
2026-05-07 17:20 14.17851 74.92163 32907 ft 505 kts 154°
2026-05-07 17:20 14.11546 74.95360 32904 ft 505 kts 154°
2026-05-07 17:21 14.05241 74.98554 32905 ft 505 kts 153°
2026-05-07 17:21 13.98940 75.01746 32901 ft 504 kts 153°
2026-05-07 17:22 13.93699 75.04398 32896 ft 504 kts 153°
2026-05-07 17:22 13.87406 75.07581 32915 ft 503 kts 153°
2026-05-07 17:23 13.81132 75.10752 32907 ft 501 kts 153°
2026-05-07 17:23 13.74885 75.13909 32907 ft 499 kts 153°
2026-05-07 17:24 13.68662 75.17051 32904 ft 498 kts 153°
2026-05-07 17:24 13.62482 75.20170 32906 ft 497 kts 153°
2026-05-07 17:25 13.56276 75.23300 32929 ft 497 kts 153°
2026-05-07 17:25 13.50047 75.26439 32926 ft 498 kts 153°
2026-05-07 17:26 13.43808 75.29582 32923 ft 499 kts 153°
2026-05-07 17:26 13.37648 75.32683 32921 ft 500 kts 153°
2026-05-07 17:27 13.31987 75.35531 32937 ft 500 kts 153°
2026-05-07 17:27 13.25742 75.38673 32944 ft 500 kts 153°
2026-05-07 17:28 13.19492 75.41814 32929 ft 500 kts 153°
2026-05-07 17:28 13.13297 75.44927 32937 ft 498 kts 153°
2026-05-07 17:29 13.07091 75.48043 32918 ft 496 kts 153°
2026-05-07 17:29 13.00910 75.51146 32941 ft 493 kts 153°
2026-05-07 17:30 12.94771 75.54254 32939 ft 492 kts 153°
2026-05-07 17:30 12.88639 75.57374 32931 ft 491 kts 153°
2026-05-07 17:31 12.82511 75.60488 32932 ft 492 kts 153°
2026-05-07 17:31 12.76363 75.63606 32924 ft 493 kts 153°
2026-05-07 17:32 12.70208 75.66727 32942 ft 494 kts 153°
2026-05-07 17:32 12.64077 75.69832 32944 ft 495 kts 153°
2026-05-07 17:33 12.57885 75.72967 32945 ft 496 kts 153°
2026-05-07 17:33 12.51687 75.76104 32942 ft 497 kts 153°
2026-05-07 17:34 12.45482 75.79242 32954 ft 497 kts 153°
2026-05-07 17:34 12.39280 75.82378 32944 ft 496 kts 154°
2026-05-07 17:35 12.33099 75.85501 32943 ft 496 kts 154°
2026-05-07 17:35 12.26920 75.88621 32941 ft 496 kts 154°
2026-05-07 17:36 12.20776 75.91722 32935 ft 496 kts 154°
2026-05-07 17:36 12.14562 75.94857 32949 ft 496 kts 154°
2026-05-07 17:37 12.08368 75.97980 32938 ft 496 kts 154°
2026-05-07 17:37 12.02179 76.01099 32935 ft 497 kts 154°
2026-05-07 17:38 11.95968 76.04228 32930 ft 497 kts 154°
2026-05-07 17:38 11.89766 76.07351 32943 ft 497 kts 154°
2026-05-07 17:39 11.83553 76.10469 32936 ft 497 kts 154°
2026-05-07 17:39 11.77321 76.13500 32935 ft 497 kts 154°
2026-05-07 17:40 11.71100 76.16499 32932 ft 497 kts 154°
2026-05-07 17:40 11.64848 76.19526 32917 ft 496 kts 154°
2026-05-07 17:41 11.58631 76.22543 32937 ft 495 kts 154°
2026-05-07 17:41 11.52419 76.25557 32922 ft 494 kts 154°
2026-05-07 17:42 11.46211 76.28566 32926 ft 494 kts 154°
2026-05-07 17:42 11.40011 76.31570 32906 ft 494 kts 154°
2026-05-07 17:43 11.33889 76.34562 32909 ft 494 kts 154°
2026-05-07 17:43 11.27717 76.37631 32918 ft 494 kts 154°
2026-05-07 17:44 11.21576 76.40685 32917 ft 494 kts 154°
2026-05-07 17:44 11.15351 76.43772 32918 ft 494 kts 154°
2026-05-07 17:45 11.09209 76.46814 32916 ft 495 kts 154°
2026-05-07 17:45 11.03013 76.49879 32920 ft 495 kts 154°
2026-05-07 17:46 10.96866 76.52920 32905 ft 495 kts 154°
2026-05-07 17:46 10.90664 76.55986 32907 ft 495 kts 154°
2026-05-07 17:47 10.84518 76.59024 32893 ft 495 kts 154°
2026-05-07 17:47 10.78320 76.62087 32890 ft 495 kts 154°
2026-05-07 17:48 10.72113 76.65153 32888 ft 496 kts 154°
2026-05-07 17:48 10.65913 76.68235 32887 ft 496 kts 154°
2026-05-07 17:49 10.63043 76.69677 32883 ft 496 kts 154°
2026-05-07 17:49 10.56849 76.72795 32893 ft 498 kts 154°
2026-05-07 17:50 10.50686 76.75890 32903 ft 499 kts 154°
2026-05-07 17:50 10.44407 76.79037 32891 ft 500 kts 154°
2026-05-07 17:51 10.38197 76.82137 32912 ft 500 kts 155°
2026-05-07 17:51 10.31722 76.84668 32916 ft 500 kts 161°
2026-05-07 17:52 10.25182 76.86958 32922 ft 499 kts 161°
2026-05-07 17:52 10.18704 76.89259 32914 ft 496 kts 160°
2026-05-07 17:53 10.12252 76.91579 32910 ft 494 kts 160°
2026-05-07 17:53 10.05781 76.93909 32926 ft 494 kts 160°
2026-05-07 17:54 9.99292 76.96242 32918 ft 494 kts 160°
2026-05-07 17:54 9.92738 76.98376 32906 ft 497 kts 168°
2026-05-07 17:55 9.85861 76.99218 32910 ft 499 kts 179°
2026-05-07 17:55 9.78953 76.98935 32915 ft 500 kts 183°
2026-05-07 17:56 9.72000 76.98525 32898 ft 501 kts 183°
2026-05-07 17:56 9.65027 76.98147 32900 ft 501 kts 182°
2026-05-07 17:57 9.59204 76.97857 32900 ft 500 kts 182°
2026-05-07 17:57 9.51097 76.97463 32891 ft 501 kts 182°
2026-05-07 17:58 9.44126 76.97124 32889 ft 501 kts 182°
2026-05-07 17:58 9.37160 76.96783 32880 ft 502 kts 182°
2026-05-07 17:59 9.30163 76.96440 32881 ft 502 kts 182°
2026-05-07 17:59 9.23235 76.96101 32865 ft 502 kts 182°
2026-05-07 18:00 9.16243 76.95758 32871 ft 504 kts 182°
2026-05-07 18:00 9.09217 76.95414 32869 ft 506 kts 182°
2026-05-07 18:01 9.02176 76.95070 32865 ft 507 kts 182°
2026-05-07 18:01 8.95113 76.94724 32857 ft 508 kts 182°
2026-05-07 18:02 8.84539 76.94208 32844 ft 507 kts 182°
2026-05-07 18:03 8.77470 76.93863 32855 ft 507 kts 182°
2026-05-07 18:03 8.70414 76.93518 32850 ft 507 kts 182°
2026-05-07 18:04 8.63363 76.93174 32839 ft 507 kts 182°
2026-05-07 18:04 8.56314 76.92830 32858 ft 507 kts 182°
2026-05-07 18:05 8.49319 76.92020 32838 ft 507 kts 196°
2026-05-07 18:05 8.42996 76.89008 32816 ft 509 kts 216°
2026-05-07 18:06 8.37422 76.84506 32843 ft 509 kts 219°
2026-05-07 18:06 8.31962 76.80020 32831 ft 509 kts 218°
2026-05-07 18:07 8.26477 76.75586 32829 ft 508 kts 218°
2026-05-07 18:07 8.20916 76.71138 32836 ft 508 kts 218°
2026-05-07 18:08 8.15348 76.66697 32830 ft 507 kts 218°
2026-05-07 18:08 8.09841 76.62303 32823 ft 508 kts 217°
2026-05-07 18:09 8.04298 76.57879 32842 ft 508 kts 217°
2026-05-07 18:09 7.98736 76.53441 32841 ft 509 kts 217°
2026-05-07 18:10 7.93208 76.49031 32839 ft 509 kts 217°
2026-05-07 18:10 7.87666 76.44612 32824 ft 509 kts 217°
2026-05-07 18:11 7.83039 76.40923 32841 ft 508 kts 217°
2026-05-07 18:11 7.77489 76.36500 32841 ft 508 kts 217°
2026-05-07 18:12 7.71951 76.32089 32839 ft 507 kts 217°
2026-05-07 18:12 7.66413 76.27679 32823 ft 507 kts 217°
2026-05-07 18:13 7.60863 76.23261 32825 ft 507 kts 217°
2026-05-07 18:13 7.55328 76.18856 32837 ft 507 kts 217°
2026-05-07 18:14 7.49780 76.14442 32841 ft 507 kts 217°
2026-05-07 18:14 7.44285 76.10072 32823 ft 506 kts 217°
2026-05-07 18:15 7.38750 76.05671 32831 ft 506 kts 217°
2026-05-07 18:15 7.33229 76.01284 32841 ft 505 kts 217°
2026-05-07 18:16 7.27743 75.96925 32841 ft 505 kts 217°
2026-05-07 18:16 7.22221 75.92539 32827 ft 504 kts 217°
2026-05-07 18:17 7.16705 75.88160 32824 ft 505 kts 217°
2026-05-07 18:17 7.11225 75.83810 32826 ft 505 kts 217°
2026-05-07 18:18 7.05710 75.79434 32845 ft 505 kts 217°
2026-05-07 18:18 7.00195 75.75059 32827 ft 505 kts 217°
2026-05-07 18:19 6.94663 75.70673 32832 ft 506 kts 217°
2026-05-07 18:19 6.89130 75.66286 32847 ft 506 kts 217°
2026-05-07 18:20 6.83599 75.61904 32832 ft 507 kts 217°
2026-05-07 18:20 6.78053 75.57510 32829 ft 507 kts 217°
2026-05-07 18:21 6.72544 75.53146 32833 ft 507 kts 217°
2026-05-07 18:21 6.66974 75.48736 32832 ft 507 kts 217°
2026-05-07 18:22 6.61439 75.44355 32830 ft 508 kts 217°
2026-05-07 18:22 6.55873 75.39951 32837 ft 509 kts 217°
2026-05-07 18:23 6.50300 75.35542 32831 ft 510 kts 217°
2026-05-07 18:23 6.44716 75.31125 32833 ft 511 kts 217°
2026-05-07 18:24 6.39134 75.26712 32830 ft 511 kts 217°
2026-05-07 18:24 6.33579 75.22321 32836 ft 511 kts 217°
2026-05-07 18:25 6.27997 75.17910 32830 ft 510 kts 217°
2026-05-07 18:25 6.22411 75.13497 32830 ft 510 kts 217°
2026-05-07 18:26 6.16821 75.09082 32832 ft 511 kts 217°
2026-05-07 18:26 6.11229 75.04667 32835 ft 511 kts 217°
2026-05-07 18:27 6.05639 75.00253 32837 ft 511 kts 217°
2026-05-07 18:27 6.00054 74.95845 32835 ft 510 kts 217°
2026-05-07 18:28 5.94520 74.91455 32828 ft 510 kts 217°
2026-05-07 18:28 5.88961 74.87025 32828 ft 510 kts 217°
2026-05-07 18:29 5.83401 74.82596 32830 ft 510 kts 217°
2026-05-07 18:29 5.77829 74.78163 32831 ft 511 kts 217°
2026-05-07 18:30 5.72248 74.73726 32832 ft 511 kts 217°
2026-05-07 18:30 5.66703 74.69317 32838 ft 512 kts 217°
2026-05-07 18:31 5.61087 74.64853 32839 ft 512 kts 217°
2026-05-07 18:31 5.55540 74.60445 32833 ft 512 kts 217°
2026-05-07 18:32 5.49961 74.56011 32837 ft 512 kts 217°
2026-05-07 18:32 5.44374 74.51574 32832 ft 512 kts 217°
2026-05-07 18:33 5.38682 74.47267 32837 ft 512 kts 214°
2026-05-07 18:33 5.32910 74.43083 32835 ft 512 kts 214°
2026-05-07 18:34 5.27137 74.38882 32835 ft 512 kts 214°
2026-05-07 18:34 5.21375 74.34650 32837 ft 512 kts 214°
2026-05-07 18:35 5.15628 74.30417 32834 ft 511 kts 214°
2026-05-07 18:35 5.09888 74.26190 32268 ft 519 kts 214°
2026-05-07 18:35 5.06942 74.24024 31230 ft 526 kts 214°
2026-05-07 18:36 5.04020 74.21875 30322 ft 510 kts 214°
2026-05-07 18:36 5.01182 74.19785 29578 ft 505 kts 215°
2026-05-07 18:36 4.98394 74.17733 28766 ft 502 kts 214°
2026-05-07 18:36 4.95590 74.15672 28037 ft 498 kts 215°
2026-05-07 18:37 4.92799 74.13620 27326 ft 494 kts 215°
2026-05-07 18:37 4.90034 74.11588 26623 ft 490 kts 216°
2026-05-07 18:37 4.87285 74.09568 25928 ft 487 kts 216°
2026-05-07 18:37 4.84559 74.07565 25228 ft 484 kts 217°
2026-05-07 18:38 4.81849 74.05574 24536 ft 482 kts 217°
2026-05-07 18:38 4.79152 74.03592 23838 ft 479 kts 217°
2026-05-07 18:38 4.76463 74.01617 23103 ft 477 kts 217°
2026-05-07 18:38 4.73798 73.99658 22357 ft 473 kts 217°
2026-05-07 18:39 4.71182 73.97735 21650 ft 468 kts 218°
2026-05-07 18:39 4.68564 73.95811 21013 ft 464 kts 217°
2026-05-07 18:39 4.65979 73.93912 20348 ft 459 kts 218°
2026-05-07 18:39 4.63409 73.92024 19749 ft 454 kts 218°
2026-05-07 18:40 4.60866 73.90157 19083 ft 452 kts 218°
2026-05-07 18:40 4.58344 73.88305 18525 ft 447 kts 217°
2026-05-07 18:40 4.55852 73.86476 18053 ft 440 kts 218°
2026-05-07 18:40 4.53398 73.84674 17504 ft 432 kts 218°
2026-05-07 18:41 4.51035 73.82939 16796 ft 413 kts 218°
2026-05-07 18:41 4.48742 73.81255 15819 ft 409 kts 218°
2026-05-07 18:41 4.46443 73.79565 15181 ft 408 kts 218°
2026-05-07 18:41 4.44184 73.77915 14599 ft 402 kts 216°
2026-05-07 18:42 4.41703 73.76677 14003 ft 402 kts 198°
2026-05-07 18:42 4.38938 73.76324 13405 ft 399 kts 181°
2026-05-07 18:42 4.36172 73.76382 12792 ft 397 kts 181°
2026-05-07 18:42 4.33413 73.76418 12187 ft 395 kts 181°
2026-05-07 18:43 4.30678 73.76437 11680 ft 391 kts 181°
2026-05-07 18:43 4.27960 73.76447 11136 ft 389 kts 181°
2026-05-07 18:43 4.25284 73.76454 10898 ft 378 kts 181°
2026-05-07 18:43 4.22689 73.76458 10734 ft 366 kts 182°
2026-05-07 18:44 4.20180 73.76461 10575 ft 355 kts 182°
2026-05-07 18:44 4.17746 73.76462 10430 ft 345 kts 181°
2026-05-07 18:44 4.15406 73.76463 10264 ft 335 kts 181°
2026-05-07 18:44 4.13103 73.76464 10114 ft 326 kts 181°
2026-05-07 18:45 4.10854 73.76465 9936 ft 318 kts 182°
2026-05-07 18:45 4.08655 73.76465 9713 ft 312 kts 182°
2026-05-07 18:45 4.06482 73.76465 9386 ft 309 kts 181°
2026-05-07 18:45 4.04331 73.76467 8966 ft 311 kts 181°
2026-05-07 18:46 4.02182 73.76468 8633 ft 309 kts 182°
2026-05-07 18:46 4.00038 73.76469 8338 ft 305 kts 182°
2026-05-07 18:46 3.98004 73.76164 8004 ft 293 kts 205°
2026-05-07 18:46 3.96342 73.75022 7528 ft 291 kts 231°
2026-05-07 18:47 3.95307 73.73325 7238 ft 283 kts 250°
2026-05-07 18:47 3.94846 73.71436 6901 ft 278 kts 267°
2026-05-07 18:47 3.94814 73.69526 6608 ft 275 kts 273°
2026-05-07 18:47 3.94852 73.67608 6275 ft 276 kts 273°
2026-05-07 18:48 3.94879 73.65693 5953 ft 275 kts 272°
2026-05-07 18:48 3.94898 73.63813 5661 ft 264 kts 272°
2026-05-07 18:48 3.94905 73.61997 5175 ft 257 kts 272°
2026-05-07 18:48 3.94905 73.60237 4864 ft 248 kts 272°
2026-05-07 18:49 3.94903 73.58538 4745 ft 240 kts 271°
2026-05-07 18:49 3.94901 73.56898 4625 ft 231 kts 271°
2026-05-07 18:49 3.94993 73.55342 4443 ft 218 kts 288°
2026-05-07 18:49 3.95766 73.54095 4231 ft 210 kts 319°
2026-05-07 18:50 3.97003 73.53332 4008 ft 210 kts 336°
2026-05-07 18:50 3.98453 73.53059 3739 ft 217 kts 358°
2026-05-07 18:50 3.99969 73.53083 3501 ft 220 kts 357°
2026-05-07 18:50 4.01510 73.53092 3254 ft 220 kts 358°
2026-05-07 18:51 4.03017 73.53100 3010 ft 218 kts 357°
2026-05-07 18:51 4.04521 73.53103 2759 ft 215 kts 356°
2026-05-07 18:51 4.06007 73.53105 2506 ft 213 kts 356°
2026-05-07 18:51 4.07468 73.53108 2174 ft 205 kts 357°
2026-05-07 18:52 4.08845 73.53111 2054 ft 192 kts 356°
2026-05-07 18:52 4.10135 73.53107 2078 ft 179 kts 356°
2026-05-07 18:52 4.11364 73.53106 1899 ft 178 kts 355°
2026-05-07 18:52 4.12604 73.53103 1478 ft 175 kts 356°
2026-05-07 18:53 4.13790 73.53109 990 ft 168 kts 357°
2026-05-07 18:53 4.14919 73.53129 657 ft 154 kts 353°
2026-05-07 18:53 4.15938 73.53100 436 ft 145 kts 357°
2026-05-07 18:53 4.16934 73.53102 332 ft 141 kts 357°
2026-05-07 18:54 4.17880 73.53103 170 ft 144 kts 356°
2026-05-07 18:54 4.18905 73.53107 34 ft 146 kts 356°
2026-05-07 18:54 4.19835 73.53096 17 ft 115 kts
2026-05-07 18:54 4.20483 73.53098 17 ft 71 kts
2026-05-07 18:55 4.20824 73.53100 17 ft 27 kts 359°
2026-05-07 18:55 4.20912 73.53075 17 ft 13 kts 308°
2026-05-07 18:55 4.20928 73.52988 17 ft 7 kts 270°
2026-05-07 18:55 4.20928 73.52976 17 ft 0 kts 270°
2026-05-07 18:56 4.20926 73.52958 17 ft 10 kts 260°
2026-05-07 18:56 4.20819 73.52894 17 ft 22 kts 191°
2026-05-07 18:57 4.20668 73.52890 17 ft 22 kts 179°
2026-05-07 18:57 4.20526 73.52892 17 ft 22 kts 179°
2026-05-07 18:57 4.20374 73.52895 17 ft 22 kts 179°
2026-05-07 18:57 4.20223 73.52897 17 ft 22 kts 179°
2026-05-07 18:58 4.20072 73.52899 17 ft 22 kts 179°
2026-05-07 18:58 4.19921 73.52904 17 ft 22 kts 178°
2026-05-07 18:58 4.19770 73.52904 17 ft 22 kts 180°
2026-05-07 18:58 4.19620 73.52904 17 ft 22 kts 180°
2026-05-07 18:59 4.19470 73.52909 17 ft 22 kts 174°
2026-05-07 18:59 4.19372 73.52912 17 ft 22 kts 180°
2026-05-07 18:59 4.19220 73.52913 17 ft 22 kts 179°
2026-05-07 18:59 4.19104 73.52916 17 ft 15 kts 179°
2026-05-07 19:00 4.19000 73.52918 17 ft 15 kts 179°
2026-05-07 19:00 4.18897 73.52920 17 ft 15 kts 179°
2026-05-07 19:00 4.18793 73.52922 17 ft 15 kts 179°
2026-05-07 19:00 4.18717 73.52923 17 ft 8 kts 179°
2026-05-07 19:01 4.18657 73.52923 17 ft 9 kts 179°
2026-05-07 19:01 4.18608 73.52906 17 ft 3 kts 237°
2026-05-07 19:01 4.18611 73.52879 17 ft 5 kts 287°
2026-05-07 19:01 4.18628 73.52849 17 ft 5 kts 297°
2026-05-07 19:02 4.18634 73.52814 17 ft 0 kts 271°
2026-05-07 19:02 4.18634 73.52808 17 ft 0 kts 270°